DW6451 Weather Reports


Display with metric or nautical units.
time (UTC)temp
F
wind
direction
speed
MPH
gust
MPH
rain 1hr
in
rain 24hr
in
rain mn
in
humidity
%
barometer
mb
20260503020022 47 24 0.0 0.0 0.00 0.00 0.00 65 1006.9
20260503014520 47 24 0.0 0.0 0.00 0.00 0.00 64 1007.2
20260503013029 48 24 0.0 0.0 0.00 0.00 0.00 62 1007.2
20260503011514 48 24 0.0 0.0 0.00 0.00 0.00 62 1007.3
20260503010014 49 24 0.0 1.0 0.00 0.00 0.00 63 1007.4
20260503004512 50 24 1.0 3.0 0.00 0.00 0.00 65 1007.6
20260503003014 50 24 0.0 1.0 0.00 0.00 0.00 63 1007.6
20260503001509 50 25 0.0 3.0 0.00 0.00 0.00 65 1007.7
20260503000005 50 12 0.0 3.0 0.00 0.00 0.00 66 1008.0
20260502234504 51 15 0.0 2.0 0.00 0.00 0.00 68 1008.1
20260502233003 53 15 0.0 3.0 0.00 0.00 0.00 64 1008.2
20260502231502 55 17 0.0 3.0 0.00 0.00 0.00 62 1008.3
20260502230002 57 17 0.0 3.0 0.00 0.00 0.00 54 1008.4
20260502224558 58 17 0.0 3.0 0.00 0.00 0.00 53 1008.6
20260502223103 58 17 1.0 4.0 0.00 0.00 0.00 48 1008.8
20260502221554 59 15 1.0 5.0 0.00 0.00 0.00 40 1009.1
20260502220100 60 26 1.0 4.0 0.00 0.00 0.00 38 1009.2
20260502214551 59 37 1.0 4.0 0.00 0.00 0.00 37 1009.4
20260502213051 59 19 1.0 6.0 0.00 0.00 0.00 36 1009.6
20260502211547 60 42 1.0 6.0 0.00 0.00 0.00 36 1009.8
20260502210049 61 16 2.0 6.0 0.00 0.00 0.00 36 1010.1
20260502204543 61 28 2.0 6.0 0.00 0.00 0.00 37 1010.3
20260502203049 60 355 1.0 5.0 0.00 0.00 0.00 38 1010.4
20260502201540 60 76 3.0 8.0 0.00 0.00 0.00 38 1010.8
20260502200037 60 80 2.0 4.0 0.00 0.00 0.00 36 1011.0
20260502194534 60 27 3.0 8.0 0.00 0.00 0.00 39 1011.3
20260502193030 59 46 1.0 5.0 0.00 0.00 0.00 37 1011.7
20260502191534 59 34 1.0 5.0 0.00 0.00 0.00 36 1011.9
20260502190026 59 25 2.0 5.0 0.00 0.00 0.00 36 1012.2
20260502184525 58 30 2.0 5.0 0.00 0.00 0.00 36 1012.4
20260502183027 59 34 0.0 5.0 0.00 0.00 0.00 39 1012.8
20260502181522 59 39 1.0 6.0 0.00 0.00 0.00 37 1013.0
20260502163003 57 38 2.0 5.0 0.00 0.00 0.00 32 1014.6
20260502161558 57 13 0.0 4.0 0.00 0.00 0.00 34 1014.8
20260502151608 54 242 0.0 5.0 0.00 0.00 0.00 39 1015.5
20260502123001 35 94 0.0 0.0 0.00 0.00 0.00 87 1016.9
20260502121559 32 94 0.0 0.0 0.00 0.00 0.00 91 1016.9
20260502114531 28 94 0.0 0.0 0.00 0.00 0.00 91 1016.9
20260502113034 27 94 0.0 0.0 0.00 0.00 0.00 89 1016.8
20260502111530 27 94 0.0 0.0 0.00 0.00 0.00 89 1016.8
20260502110032 27 94 0.0 0.0 0.00 0.00 0.00 89 1016.7
20260502104533 28 94 0.0 0.0 0.00 0.00 0.00 88 1016.8
20260502103026 28 94 0.0 0.0 0.00 0.00 0.00 88 1016.8
20260502101526 28 94 0.0 0.0 0.00 0.00 0.00 88 1016.8
20260502091518 29 94 0.0 0.0 0.00 0.00 0.00 86 1016.8
20260502071503 30 94 0.0 0.0 0.00 0.00 0.00 84 1017.1
20260502070005 30 94 0.0 0.0 0.00 0.00 0.00 84 1017.3
20260502064602 31 94 0.0 0.0 0.00 0.00 0.00 83 1017.3
20260502063113 31 94 0.0 0.0 0.00 0.00 0.00 82 1017.4
20260502061554 31 94 0.0 0.0 0.00 0.00 0.00 81 1017.3
20260502060056 32 94 0.0 1.0 0.00 0.00 0.00 81 1017.4
20260502054601 32 94 0.0 0.0 0.00 0.00 0.00 80 1017.4
20260502053051 32 94 0.0 0.0 0.00 0.00 0.00 79 1017.5
20260502051548 33 94 0.0 0.0 0.00 0.00 0.00 78 1017.4
20260502050050 34 94 0.0 0.0 0.00 0.00 0.00 77 1017.4
20260502044543 34 94 0.0 0.0 0.00 0.00 0.00 77 1017.3
20260502043053 35 94 0.0 0.0 0.00 0.00 0.00 75 1017.4
20260502041608 36 94 0.0 0.0 0.00 0.00 0.00 74 1017.3
20260502040051 36 94 0.0 0.0 0.00 0.00 0.00 72 1017.4
20260502034545 37 94 0.0 0.0 0.00 0.00 0.00 72 1017.4
20260502033041 38 94 0.0 0.0 0.00 0.00 0.00 69 1017.4
20260502031540 39 94 0.0 0.0 0.00 0.00 0.00 68 1017.4
20260502030057 39 94 0.0 0.0 0.00 0.00 0.00 66 1017.3
20260502024550 40 94 0.0 0.0 0.00 0.00 0.00 63 1017.5
20260502023048 41 94 0.0 0.0 0.00 0.00 0.00 60 1017.5
20260502021534 42 94 0.0 1.0 0.00 0.00 0.00 58 1017.4